Location: Clyde
(45.1830°S, 169.3170°E)
Time: 19:16:54
(UTC+12:00)

ISS - Visible Passes

Search period start: 23 September 2023 00:00
Search period end: 03 October 2023 01:00
Orbit: 414 x 422 km, 51.6° (Epoch: 23 September)

Date Brightness Start Highest point End Pass type
(mag) Time Alt. Az. Time Alt. Az. Time Alt. Az.
23 Sep -3.0 05:11:22 21° NNW 05:13:20 47° NE 05:16:41 10° ESE visible
24 Sep -2.2 05:25:28 30° NE 05:25:29 30° NE 05:28:33 10° ESE visible
24 Sep -3.3 06:58:46 10° W 07:02:09 52° SSW 07:05:33 10° SE visible
25 Sep -0.7 04:39:28 13° E 04:39:28 13° E 04:40:09 10° E visible
25 Sep -3.7 06:12:24 27° WNW 06:14:06 74° SSW 06:17:35 10° ESE visible
26 Sep -3.6 05:26:18 70° ENE 05:26:18 70° ENE 05:29:33 10° ESE visible
27 Sep -1.1 04:40:07 20° ESE 04:40:07 20° ESE 04:41:25 10° ESE visible
27 Sep -2.8 06:13:02 21° WSW 06:14:56 40° SSW 06:18:14 10° SE visible
28 Sep -3.3 05:26:46 53° SSW 05:26:46 53° SSW 05:30:10 10° SE visible
29 Sep -1.4 04:40:27 25° SE 04:40:27 25° SE 04:42:04 10° ESE visible
29 Sep -2.2 06:13:22 14° WSW 06:15:45 29° S 06:18:50 10° SE visible
30 Sep -2.5 05:26:59 31° SSW 05:27:28 33° SSW 05:30:39 10° SE visible
01 Oct -1.6 04:40:34 27° SSE 04:40:34 27° SSE 04:42:29 10° SE visible
01 Oct -2.0 06:13:31 10° WSW 06:16:31 27° S 06:19:31 10° ESE visible
02 Oct -0.2 03:54:07 11° SE 03:54:07 11° SE 03:54:18 10° SE visible
02 Oct -2.0 05:27:02 22° SW 05:28:09 27° S 05:31:10 10° ESE visible
